TimeCST,TemperatureF,Dew PointF,Humidity,Sea Level PressureIn,VisibilityMPH,Wind Direction,Wind SpeedMPH,Gust SpeedMPH,PrecipitationIn,Events,Conditions,WindDirDegrees,DateUTC
12:04 AM,39.2,37.4,93,30.26,0.2,South,3.5,-,N/A,Fog,Fog,180,2011-11-25 06:04:00
12:12 AM,41.0,37.4,87,30.25,1.2,South,5.8,-,N/A,,Scattered Clouds,170,2011-11-25 06:12:00
12:14 AM,41.0,37.4,87,30.25,2.5,South,5.8,-,N/A,,Scattered Clouds,170,2011-11-25 06:14:00
12:21 AM,42.8,39.2,87,30.25,5.0,South,6.9,-,N/A,,Partly Cloudy,180,2011-11-25 06:21:00
12:54 AM,42.1,39.0,89,30.25,5.0,South,4.6,-,N/A,,Clear,170,2011-11-25 06:54:00
1:54 AM,41.0,39.2,93,30.24,5.0,South,3.5,-,N/A,,Clear,170,2011-11-25 07:54:00
2:20 AM,39.2,37.4,93,30.24,2.0,Calm,Calm,-,N/A,,Clear,0,2011-11-25 08:20:00
2:44 AM,39.2,37.4,93,30.23,1.5,Calm,Calm,-,N/A,,Partly Cloudy,0,2011-11-25 08:44:00
2:46 AM,39.2,37.4,93,30.23,0.8,Calm,Calm,-,N/A,,Mist,0,2011-11-25 08:46:00
2:54 AM,39.0,37.0,93,30.24,0.8,Calm,Calm,-,N/A,,Mist,0,2011-11-25 08:54:00
2:58 AM,39.2,37.4,93,30.23,1.2,Calm,Calm,-,N/A,,Partly Cloudy,0,2011-11-25 08:58:00
3:00 AM,39.2,37.4,93,30.24,2.0,Calm,Calm,-,N/A,,Partly Cloudy,0,2011-11-25 09:00:00
3:08 AM,37.4,35.6,93,30.23,1.2,Calm,Calm,-,N/A,,Partly Cloudy,0,2011-11-25 09:08:00
3:18 AM,37.4,35.6,93,30.23,2.0,SE,3.5,-,N/A,,Clear,130,2011-11-25 09:18:00
3:34 AM,39.2,37.4,93,30.22,3.0,ESE,3.5,-,N/A,,Clear,110,2011-11-25 09:34:00
3:37 AM,37.4,35.6,93,30.22,1.8,Calm,Calm,-,N/A,,Clear,0,2011-11-25 09:37:00
3:39 AM,37.4,35.6,93,30.22,1.0,Calm,Calm,-,N/A,,Mist,0,2011-11-25 09:39:00
3:46 AM,35.6,33.8,93,30.22,0.5,Calm,Calm,-,N/A,Fog,Fog,0,2011-11-25 09:46:00
3:54 AM,37.4,35.6,93,30.22,0.8,Calm,Calm,-,N/A,,Mist,0,2011-11-25 09:54:00
4:03 AM,35.6,33.8,93,30.22,1.0,Calm,Calm,-,N/A,,Mist,0,2011-11-25 10:03:00
4:15 AM,37.4,35.6,93,30.22,1.5,Calm,Calm,-,N/A,,Clear,0,2011-11-25 10:15:00
4:18 AM,37.4,35.6,93,30.22,3.0,Calm,Calm,-,N/A,,Clear,0,2011-11-25 10:18:00
4:54 AM,37.9,35.1,89,30.23,5.0,Calm,Calm,-,N/A,,Clear,0,2011-11-25 10:54:00
5:54 AM,39.0,35.1,86,30.25,5.0,South,3.5,-,N/A,,Clear,180,2011-11-25 11:54:00
6:54 AM,39.0,35.1,86,30.25,9.0,South,4.6,-,N/A,,Clear,170,2011-11-25 12:54:00
7:54 AM,43.0,39.0,86,30.24,10.0,SSE,4.6,-,N/A,,Clear,150,2011-11-25 13:54:00
8:54 AM,48.9,41.0,74,30.25,10.0,SSW,6.9,-,N/A,,Clear,200,2011-11-25 14:54:00
9:54 AM,55.0,43.0,64,30.23,10.0,SSW,10.4,-,N/A,,Clear,200,2011-11-25 15:54:00
10:54 AM,57.0,43.0,59,30.20,10.0,SSW,16.1,23.0,N/A,,Clear,200,2011-11-25 16:54:00
11:54 AM,60.1,44.1,55,30.17,10.0,SSW,15.0,24.2,N/A,,Clear,200,2011-11-25 17:54:00
12:54 PM,62.1,42.1,48,30.14,10.0,South,17.3,25.3,N/A,,Clear,190,2011-11-25 18:54:00
1:54 PM,62.1,41.0,46,30.12,10.0,SSW,16.1,21.9,N/A,,Clear,200,2011-11-25 19:54:00
2:54 PM,62.1,39.9,44,30.11,10.0,South,12.7,19.6,N/A,,Clear,190,2011-11-25 20:54:00
3:54 PM,61.0,39.0,44,30.09,10.0,South,9.2,17.3,N/A,,Clear,180,2011-11-25 21:54:00
4:54 PM,57.9,37.9,47,30.09,10.0,South,8.1,-,N/A,,Clear,180,2011-11-25 22:54:00
5:54 PM,57.0,37.0,47,30.08,10.0,South,8.1,-,N/A,,Clear,170,2011-11-25 23:54:00
6:54 PM,55.4,35.6,47,30.07,10.0,South,6.9,-,N/A,,Clear,170,2011-11-26 00:54:00
7:54 PM,53.6,35.6,51,30.07,10.0,SSE,5.8,-,N/A,,Clear,150,2011-11-26 01:54:00
8:54 PM,54.0,36.0,51,30.09,10.0,Variable,4.6,-,N/A,,Clear,0,2011-11-26 02:54:00
9:54 PM,53.1,35.1,50,30.09,10.0,South,6.9,-,N/A,,Clear,190,2011-11-26 03:54:00
10:54 PM,53.1,35.1,50,30.10,10.0,South,8.1,-,N/A,,Clear,180,2011-11-26 04:54:00